Total_Precipitation_Accumulation
3.33 3.61 3.43 3.26 3.28 3.26 3.55 3.90 3.95 3.49 3.08 2.81 2.58 2.46 2.43 2.41 2.53 2.33 2.31 2.35 2.10 1.93 1.81 1.73 1.72 1.69 1.79 1.94 2.19 2.46 2.68 2.86 3.03 3.20 3.44 3.75 4.08 4.41
3.19 3.35 3.32 3.23 3.45 3.45 3.57 3.87 4.12 4.02 3.31 2.99 2.84 2.50 2.55 2.15 2.34 2.20 2.17 2.18 1.94 1.80 1.69 1.67 1.68 1.68 1.67 1.67 1.76 1.91 2.10 2.27 2.40 2.49 2.57 2.68 2.87 3.16
2.72 2.81 2.79 3.06 3.28 3.28 3.49 3.68 3.93 4.18 3.66 3.29 3.29 3.00 2.97 2.69 2.46 2.26 2.04 1.98 1.79 1.76 1.62 1.55 1.53 1.55 1.59 1.53 1.51 1.59 1.73 1.86 1.96 2.10 2.29 2.42 2.46 2.57
2.56 2.67 2.52 2.78 2.94 3.04 3.27 3.43 3.69 4.14 3.92 3.55 3.41 3.27 3.18 3.01 2.81 2.59 2.11 1.82 1.79 1.89 1.71 1.57 1.52 1.49 1.50 1.45 1.39 1.37 1.40 1.44 1.52 1.65 1.86 2.06 2.17 2.31
2.39 2.32 2.26 2.48 2.56 2.79 2.99 3.01 3.21 3.63 3.72 3.35 3.15 3.37 3.22 3.03 3.10 2.72 2.43 2.34 1.81 1.81 1.74 1.57 1.51 1.43 1.41 1.42 1.39 1.31 1.27 1.27 1.30 1.42 1.64 1.82 1.95 2.03
2.14 2.04 2.08 2.27 2.29 2.48 2.54 2.74 2.97 3.10 3.32 3.24 3.07 3.17 3.18 3.10 3.31 3.07 2.87 2.69 2.28 1.87 1.88 1.69 1.60 1.53 1.43 1.37 1.35 1.35 1.36 1.35 1.34 1.40 1.48 1.59 1.76 1.88
1.86 1.74 1.68 1.72 1.80 2.00 1.95 2.25 2.58 2.69 2.77 2.91 2.91 3.00 3.20 3.36 3.21 3.21 3.06 2.88 2.64 2.38 2.34 1.96 1.68 1.49 1.45 1.41 1.40 1.42 1.46 1.48 1.49 1.54 1.64 1.70 1.77 1.85
1.81 1.77 1.58 1.50 1.53 1.61 1.64 1.74 2.00 2.16 2.35 2.63 2.71 2.76 2.98 3.27 3.38 3.39 3.29 3.07 2.81 2.59 2.72 2.66 2.28 1.97 1.74 1.46 1.44 1.45 1.51 1.61 1.65 1.73 1.82 1.93 2.06 2.08
1.76 1.73 1.45 1.34 1.45 1.41 1.54 1.57 1.67 1.76 1.89 2.18 2.29 2.31 2.59 2.93 3.33 3.34 3.39 3.18 2.92 2.87 2.98 2.98 3.05 2.78 2.17 1.80 1.73 1.51 1.54 1.64 1.70 1.76 1.85 1.89 2.03 2.22
1.66 1.72 1.72 1.66 1.57 1.61 1.63 1.55 1.44 1.49 1.56 1.53 1.63 1.88 2.11 2.42 2.85 2.98 3.25 3.41 3.22 3.12 3.18 3.22 3.26 3.47 2.95 2.36 2.19 1.88 1.78 1.79 1.82 1.83 1.87 1.94 2.00 2.11
1.68 1.72 1.71 1.65 1.65 1.61 1.58 1.56 1.43 1.38 1.39 1.41 1.42 1.58 1.83 1.99 2.34 2.68 2.95 3.18 3.24 3.33 3.41 3.46 3.36 3.54 3.78 3.30 2.60 2.26 1.98 1.85 1.86 1.90 1.96 2.04 2.11 2.14
1.78 1.77 1.68 1.59 1.67 1.55 1.42 1.47 1.46 1.49 1.56 1.51 1.53 1.59 1.64 1.81 2.14 2.41 2.67 2.99 3.03 3.09 2.92 2.95 2.97 3.16 3.61 3.77 3.33 2.65 2.16 1.99 1.88 1.82 1.85 1.94 2.10 1.94
1.79 1.82 1.79 1.71 1.43 1.35 1.32 1.34 1.44 1.54 1.62 1.65 1.66 1.71 1.84 1.90 1.96 2.13 2.41 2.68 2.78 2.57 2.37 2.58 2.78 2.93 3.04 3.19 3.31 3.15 2.66 2.32 2.11 1.92 1.87 1.85 1.90 1.84
2.06 2.04 2.00 1.81 1.51 1.38 1.29 1.35 1.47 1.44 1.45 1.58 1.58 1.57 1.68 1.79 1.91 2.09 2.28 2.41 2.48 2.48 2.51 2.70 2.82 2.83 2.96 2.97 2.98 3.00 2.95 2.74 2.53 2.38 2.31 2.31 2.10 2.01
2.28 2.28 2.17 1.93 1.66 1.44 1.37 1.36 1.36 1.31 1.33 1.43 1.41 1.39 1.48 1.60 1.73 1.94 2.16 2.36 2.42 2.33 2.37 2.56 2.70 2.73 2.86 2.87 2.73 2.63 2.72 2.79 2.75 2.71 2.74 2.71 2.53 2.35
2.42 2.35 2.23 2.02 1.75 1.58 1.51 1.41 1.31 1.37 1.40 1.39 1.43 1.47 1.59 1.71 1.83 1.91 2.10 2.30 2.46 2.39 2.33 2.37 2.49 2.67 2.64 2.47 2.39 2.21 2.22 2.33 2.46 2.62 2.82 3.01 3.02 2.90
2.56 2.37 2.26 2.06 1.86 1.75 1.67 1.59 1.55 1.55 1.49 1.44 1.51 1.54 1.59 1.68 1.76 1.79 1.94 2.05 2.10 2.11 2.21 2.32 2.49 2.63 2.62 2.54 2.39 2.12 2.06 2.01 2.07 2.38 2.72 2.92 2.90 2.75
2.05 1.98 2.01 1.94 1.84 1.77 1.71 1.64 1.63 1.56 1.52 1.51 1.53 1.52 1.51 1.54 1.64 1.75 1.86 1.92 1.90 1.89 1.98 2.10 2.39 2.65 2.68 2.47 2.08 1.95 1.94 1.90 1.95 2.20 2.39 2.46 2.40 2.27
1.74 1.77 1.74 1.71 1.68 1.67 1.65 1.60 1.58 1.56 1.61 1.65 1.61 1.62 1.64 1.63 1.64 1.77 1.91 2.00 1.96 1.94 2.04 2.20 2.37 2.52 2.48 2.21 1.94 1.72 1.78 1.83 2.01 2.15 2.21 2.17 2.03 1.86
1.59 1.65 1.67 1.67 1.66 1.69 1.71 1.66 1.67 1.68 1.72 1.77 1.79 1.82 1.86 1.87 1.87 1.89 1.95 2.02 2.00 2.02 2.12 2.24 2.25 2.26 2.27 2.18 2.06 1.85 1.64 1.72 1.82 1.90 1.97 2.02 1.90 1.72
1.69 1.75 1.77 1.78 1.80 1.85 1.84 1.80 1.81 1.76 1.72 1.79 1.82 1.84 1.85 1.89 1.98 2.00 2.05 2.12 2.06 1.99 1.96 1.98 2.07 2.22 2.38 2.62 2.45 2.04 1.82 1.74 1.80 1.84 1.94 2.07 2.04 1.95
1.73 1.77 1.80 1.83 1.87 1.88 1.84 1.81 1.83 1.81 1.78 1.79 1.78 1.78 1.80 1.79 1.83 1.91 1.95 1.98 1.97 1.93 1.89 1.95 2.19 2.42 2.51 2.58 2.41 2.19 2.11 2.03 1.98 1.93 1.86 1.80 1.81 1.78
1.72 1.78 1.78 1.74 1.73 1.71 1.66 1.66 1.76 1.79 1.82 1.82 1.80 1.78 1.79 1.79 1.79 1.89 1.96 1.98 2.00 2.04 2.04 2.10 2.19 2.32 2.40 2.45 2.50 2.42 2.25 2.17 2.16 2.12 1.97 1.74 1.43 1.27